This demonstration page uses our WeatherBlox Daily Observations layout. Learn more.

Left ArrowRight Arrow

Hourly Observations for November 26, 2021

Temp ( °F °C ) Dew Point ( °F °C ) Humidity (%) Winds ( mph kmh ) Pressure ( in mb ) Visibility ( mi km ) Precip ( " mm )
12:32 am 00:32 Cloudy with Light Rain 55 12.8 54 12.2 96 96 WSW 5 7 30.04 1017 10 16 0.02 0.51
12:53 am 00:53 Cloudy with Light Rain 56 13.3 54 12.2 93 93 WNW 10 17 30.02 1017 10 16 0.02 0.51
1:29 am 01:29 Cloudy 55 12.8 53 11.7 93 93 WNW 8 13 30.02 1017 10 16 0.00 0.00
1:53 am 01:53 Cloudy 54 12.2 52 11.1 93 93 NW 9 15 30.00 1016 10 16 0.00 0.00
2:24 am 02:24 Cloudy 54 12.2 51 10.6 90 90 NNW 10 17 30.02 1017 10 16 0.00 0.00
2:53 am 02:53 Cloudy 53 11.7 49 9.4 86 86 NNW 13 20 30.02 1017 10 16 0.00 0.00
3:53 am 03:53 Cloudy 52 11.1 47 8.3 83 83 NNW 9 15 30.04 1017 10 16 0.00 0.00
4:53 am 04:53 Cloudy 51 10.6 46 7.8 83 83 WNW 9 15 30.06 1018 10 16 0.00 0.00
5:53 am 05:53 Cloudy 45 7.2 38 3.3 77 77 NNW 8 13 30.09 1019 10 16 0.00 0.00
6:29 am 06:29 Partly Cloudy 42 5.6 34 1.1 73 73 NW 13 20 30.15 1021 10 16 0.00 0.00
6:53 am 06:53 Clear 41 5 32 0 70 70 NNW 17 28 30.12 1020 10 16 0.00 0.00
7:53 am 07:53 Sunny 39 3.9 31 -0.6 73 73 NW 12 19 30.13 1020 10 16 0.00 0.00
8:53 am 08:53 Sunny 40 4.4 31 -0.6 70 70 NW 13 20 30.14 1021 10 16 0.00 0.00
9:53 am 09:53 Sunny 42 5.6 31 -0.6 65 65 NW 10 17 30.16 1021 10 16 0.00 0.00
10:53 am 10:53 Sunny 44 6.7 27 -2.8 51 51 NNW 17 28 30.16 1021 10 16 0.00 0.00
11:53 am 11:53 Sunny 46 7.8 26 -3.3 46 46 NNW 13 20 30.14 1021 10 16 0.00 0.00
12:53 pm 12:53 Sunny 48 8.9 23 -5 37 37 NNW 10 17 30.12 1020 10 16 0.00 0.00
1:53 pm 13:53 Sunny 49 9.4 21 -6.1 33 33 WNW 13 20 30.10 1019 10 16 0.00 0.00
2:53 pm 14:53 Sunny 50 10 20 -6.7 30 30 NW 12 19 30.09 1019 10 16 0.00 0.00
3:53 pm 15:53 Sunny 50 10 19 -7.2 29 29 NW 12 19 30.09 1019 10 16 0.00 0.00
4:53 pm 16:53 Sunny 48 8.9 23 -5 37 37 WNW 12 19 30.10 1019 10 16 0.00 0.00
5:53 pm 17:53 Clear 45 7.2 22 -5.6 40 40 WNW 8 13 30.11 1020 10 16 0.00 0.00
6:53 pm 18:53 Clear 44 6.7 20 -6.7 38 38 VRB 5 7 30.11 1020 10 16 0.00 0.00
7:53 pm 19:53 Clear 41 5 21 -6.1 45 45 Calm 30.11 1020 10 16 0.00 0.00
8:53 pm 20:53 Clear 38 3.3 24 -4.4 57 57 Calm 30.13 1020 10 16 0.00 0.00
9:53 pm 21:53 Clear 35 1.7 25 -3.9 67 67 W 3 6 30.12 1020 10 16 0.00 0.00
10:53 pm 22:53 Clear 38 3.3 23 -5 55 55 Calm 30.12 1020 10 16 0.00 0.00
11:53 pm 23:53 Clear 37 2.8 22 -5.6 54 54 NNW 3 6 30.13 1020 10 16 0.00 0.00

Powered by AerisWeather